BEL2610 EDDF-EBBR

Flight info

Callsign BEL2610
Flight time 0h 39m
Altitude 20000
Route SOBRA2L/18 SOBRA Y180 BITBU Y181 GOPAS N852 LNO
Aircraft B739/M-SDE2E3FGHIRWXY/LB1

Departure

Time 2026-05-07 10:14
Airport Frankfurt Main Airport (EDDF)

Arrival

Time 2026-05-07 10:53
Airport Brussels Airport (EBBR)
Time Latitude Longitude Altitude Speed Heading
2026-05-07 09:42 50.04882 8.57154 355 ft 0 kts 163°
2026-05-07 10:06 50.04871 8.57146 361 ft 3 kts 221°
2026-05-07 10:06 50.04864 8.57102 357 ft 7 kts 253°
2026-05-07 10:06 50.04819 8.57051 355 ft 11 kts 204°
2026-05-07 10:07 50.04738 8.56995 358 ft 14 kts 204°
2026-05-07 10:07 50.04654 8.56934 362 ft 13 kts 205°
2026-05-07 10:07 50.04570 8.56897 362 ft 12 kts 193°
2026-05-07 10:07 50.04485 8.56864 358 ft 13 kts 202°
2026-05-07 10:08 50.04430 8.56738 359 ft 17 kts 249°
2026-05-07 10:08 50.04384 8.56548 360 ft 21 kts 249°
2026-05-07 10:08 50.04329 8.56321 356 ft 24 kts 250°
2026-05-07 10:08 50.04269 8.56062 359 ft 27 kts 250°
2026-05-07 10:09 50.04203 8.55783 353 ft 27 kts 250°
2026-05-07 10:09 50.04138 8.55515 355 ft 26 kts 249°
2026-05-07 10:09 50.04076 8.55266 359 ft 24 kts 249°
2026-05-07 10:09 50.04020 8.55028 359 ft 24 kts 250°
2026-05-07 10:10 50.03961 8.54770 356 ft 27 kts 250°
2026-05-07 10:10 50.03889 8.54482 352 ft 30 kts 249°
2026-05-07 10:10 50.03792 8.54193 353 ft 30 kts 247°
2026-05-07 10:10 50.03722 8.53900 345 ft 28 kts 249°
2026-05-07 10:11 50.03656 8.53625 339 ft 26 kts 249°
2026-05-07 10:11 50.03592 8.53370 335 ft 24 kts 249°
2026-05-07 10:11 50.03531 8.53114 334 ft 27 kts 250°
2026-05-07 10:11 50.03461 8.52832 333 ft 29 kts 246°
2026-05-07 10:12 50.03366 8.52596 334 ft 22 kts 192°
2026-05-07 10:12 50.03336 8.52595 335 ft 0 kts 179°
2026-05-07 10:13 50.03322 8.52596 333 ft 8 kts 179°
2026-05-07 10:13 50.03037 8.52601 331 ft 95 kts 180°
2026-05-07 10:13 50.02033 8.52608 395 ft 183 kts 179°
2026-05-07 10:14 50.00623 8.52630 1096 ft 217 kts 181°
2026-05-07 10:14 49.99143 8.52712 2691 ft 213 kts 179°
2026-05-07 10:14 49.97601 8.52798 3751 ft 229 kts 179°
2026-05-07 10:14 49.95992 8.52891 4730 ft 235 kts 179°
2026-05-07 10:15 49.94325 8.52998 5653 ft 243 kts 179°
2026-05-07 10:15 49.92625 8.53116 6777 ft 245 kts 179°
2026-05-07 10:15 49.90916 8.53238 7846 ft 248 kts 179°
2026-05-07 10:15 49.89186 8.53362 8943 ft 250 kts 179°
2026-05-07 10:16 49.87436 8.53444 9992 ft 253 kts 187°
2026-05-07 10:16 49.85707 8.52707 10630 ft 269 kts 206°
2026-05-07 10:16 49.83870 8.51525 10895 ft 303 kts 203°
2026-05-07 10:16 49.81796 8.50325 11150 ft 334 kts 202°
2026-05-07 10:17 49.79552 8.48987 11550 ft 354 kts 208°
2026-05-07 10:17 49.77633 8.46615 12426 ft 355 kts 234°
2026-05-07 10:17 49.76592 8.43192 13417 ft 356 kts 258°
2026-05-07 10:17 49.76348 8.39375 14307 ft 360 kts 272°
2026-05-07 10:18 49.76809 8.35530 15032 ft 366 kts 286°
2026-05-07 10:18 49.77267 8.33017 15630 ft 368 kts 285°
2026-05-07 10:18 49.77918 8.29159 16435 ft 373 kts 284°
2026-05-07 10:18 49.78557 8.25233 17208 ft 379 kts 284°
2026-05-07 10:19 49.79400 8.19963 18367 ft 381 kts 284°
2026-05-07 10:19 49.80031 8.16001 19313 ft 378 kts 284°
2026-05-07 10:19 49.80455 8.13335 19743 ft 379 kts 284°
2026-05-07 10:19 49.81080 8.09410 19964 ft 372 kts 284°
2026-05-07 10:20 49.81701 8.05498 20012 ft 377 kts 284°
2026-05-07 10:20 49.82524 8.00299 20033 ft 374 kts 283°
2026-05-07 10:20 49.82943 7.97656 20013 ft 374 kts 283°
2026-05-07 10:20 49.83561 7.93749 20030 ft 374 kts 283°
2026-05-07 10:21 49.84179 7.89832 20022 ft 375 kts 283°
2026-05-07 10:21 49.84798 7.85908 20017 ft 374 kts 283°
2026-05-07 10:21 49.85414 7.81990 20031 ft 374 kts 283°
2026-05-07 10:21 49.86027 7.78077 20016 ft 374 kts 283°
2026-05-07 10:22 49.86642 7.74165 20025 ft 374 kts 283°
2026-05-07 10:22 49.87258 7.70251 20021 ft 373 kts 283°
2026-05-07 10:22 49.87857 7.66389 20014 ft 373 kts 283°
2026-05-07 10:22 49.88460 7.62472 20011 ft 373 kts 283°
2026-05-07 10:23 49.89060 7.58562 20022 ft 373 kts 283°
2026-05-07 10:23 49.89660 7.54642 20025 ft 373 kts 283°
2026-05-07 10:23 49.90258 7.50723 20018 ft 374 kts 283°
2026-05-07 10:23 49.90858 7.46792 20017 ft 374 kts 283°
2026-05-07 10:24 49.91456 7.42863 20016 ft 374 kts 283°
2026-05-07 10:24 49.92053 7.38924 20025 ft 374 kts 283°
2026-05-07 10:24 49.92648 7.34994 20031 ft 375 kts 282°
2026-05-07 10:24 49.93243 7.31057 20019 ft 375 kts 282°
2026-05-07 10:25 49.93839 7.27109 20017 ft 375 kts 282°
2026-05-07 10:25 49.94432 7.23160 20023 ft 375 kts 282°
2026-05-07 10:25 49.95025 7.19205 20028 ft 376 kts 282°
2026-05-07 10:25 49.95615 7.15262 20020 ft 376 kts 282°
2026-05-07 10:26 49.96206 7.11299 20015 ft 376 kts 282°
2026-05-07 10:26 49.96796 7.07336 20021 ft 376 kts 282°
2026-05-07 10:26 49.97383 7.03383 20039 ft 377 kts 282°
2026-05-07 10:26 49.97973 6.99407 20015 ft 377 kts 282°
2026-05-07 10:27 49.98561 6.95430 20026 ft 378 kts 282°
2026-05-07 10:27 49.99113 6.91490 20021 ft 378 kts 279°
2026-05-07 10:27 49.99301 6.87370 19986 ft 377 kts 267°
2026-05-07 10:27 49.99141 6.83386 20137 ft 373 kts 266°
2026-05-07 10:28 49.98993 6.79337 20020 ft 376 kts 266°
2026-05-07 10:28 49.98866 6.75289 20066 ft 375 kts 267°
2026-05-07 10:28 49.98746 6.71225 20012 ft 377 kts 267°
2026-05-07 10:28 49.98628 6.67174 20044 ft 375 kts 267°
2026-05-07 10:29 49.98510 6.63127 20016 ft 376 kts 267°
2026-05-07 10:29 49.98387 6.59074 20038 ft 375 kts 267°
2026-05-07 10:29 49.98264 6.55022 20025 ft 376 kts 267°
2026-05-07 10:30 49.98006 6.46926 20025 ft 374 kts 266°
2026-05-07 10:30 49.97875 6.42886 20010 ft 375 kts 266°
2026-05-07 10:30 49.97743 6.38843 20022 ft 374 kts 266°
2026-05-07 10:30 49.97611 6.34811 20025 ft 374 kts 266°
2026-05-07 10:31 49.97477 6.30773 20022 ft 375 kts 266°
2026-05-07 10:31 49.97342 6.26727 20014 ft 375 kts 266°
2026-05-07 10:31 49.97206 6.22683 20018 ft 375 kts 266°
2026-05-07 10:31 49.97067 6.18631 20040 ft 376 kts 266°
2026-05-07 10:32 49.96954 6.14566 19996 ft 377 kts 271°
2026-05-07 10:32 49.97491 6.10596 19967 ft 377 kts 293°
2026-05-07 10:32 49.98890 6.07234 20062 ft 379 kts 311°
2026-05-07 10:32 50.00916 6.04580 20001 ft 385 kts 329°
2026-05-07 10:33 50.03384 6.02964 20136 ft 384 kts 340°
2026-05-07 10:33 50.05921 6.01599 20044 ft 388 kts 339°
2026-05-07 10:33 50.08463 6.00180 20053 ft 387 kts 339°
2026-05-07 10:33 50.11005 5.98732 20033 ft 388 kts 338°
2026-05-07 10:34 50.13531 5.97279 20039 ft 387 kts 338°
2026-05-07 10:34 50.16048 5.95824 19984 ft 386 kts 338°
2026-05-07 10:34 50.18565 5.94366 19658 ft 384 kts 338°
2026-05-07 10:34 50.21059 5.92921 19429 ft 380 kts 338°
2026-05-07 10:35 50.23538 5.91483 19176 ft 380 kts 338°
2026-05-07 10:35 50.26014 5.90046 18946 ft 379 kts 338°
2026-05-07 10:35 50.28487 5.88609 18719 ft 379 kts 338°
2026-05-07 10:35 50.30953 5.87176 18475 ft 378 kts 338°
2026-05-07 10:36 50.33419 5.85741 18228 ft 377 kts 338°
2026-05-07 10:36 50.35874 5.84312 17959 ft 376 kts 338°
2026-05-07 10:36 50.38320 5.82886 17686 ft 375 kts 338°
2026-05-07 10:36 50.40759 5.81462 17418 ft 373 kts 338°
2026-05-07 10:37 50.43185 5.80045 17167 ft 371 kts 338°
2026-05-07 10:37 50.45600 5.78633 16900 ft 369 kts 338°
2026-05-07 10:37 50.47996 5.77229 16604 ft 368 kts 338°
2026-05-07 10:37 50.50372 5.75837 16229 ft 360 kts 338°
2026-05-07 10:38 50.52643 5.74506 15845 ft 347 kts 338°
2026-05-07 10:38 50.54872 5.73198 15477 ft 336 kts 338°
2026-05-07 10:38 50.57036 5.71925 15073 ft 330 kts 337°
2026-05-07 10:38 50.59013 5.70159 14469 ft 328 kts 315°
2026-05-07 10:39 50.60462 5.67456 14211 ft 317 kts 306°
2026-05-07 10:39 50.61831 5.64710 13719 ft 322 kts 307°
2026-05-07 10:39 50.63223 5.61951 13254 ft 320 kts 307°
2026-05-07 10:39 50.64607 5.59220 12776 ft 318 kts 308°
2026-05-07 10:40 50.65982 5.56509 12306 ft 316 kts 308°
2026-05-07 10:40 50.67345 5.53824 11956 ft 308 kts 308°
2026-05-07 10:40 50.68651 5.51248 11669 ft 295 kts 309°
2026-05-07 10:40 50.69911 5.48759 11340 ft 285 kts 309°
2026-05-07 10:41 50.71132 5.46346 11035 ft 278 kts 309°
2026-05-07 10:41 50.72333 5.43971 10444 ft 277 kts 309°
2026-05-07 10:41 50.73544 5.41575 9740 ft 281 kts 310°
2026-05-07 10:41 50.74754 5.39179 9171 ft 277 kts 310°
2026-05-07 10:42 50.75923 5.36860 8916 ft 268 kts 310°
2026-05-07 10:42 50.77070 5.34583 8655 ft 263 kts 310°
2026-05-07 10:42 50.78211 5.32316 8249 ft 265 kts 310°
2026-05-07 10:42 50.79353 5.30045 7932 ft 262 kts 310°
2026-05-07 10:43 50.80484 5.27795 7606 ft 260 kts 310°
2026-05-07 10:43 50.81606 5.25560 7238 ft 260 kts 310°
2026-05-07 10:43 50.82727 5.23326 6919 ft 258 kts 310°
2026-05-07 10:43 50.83844 5.21105 6603 ft 256 kts 310°
2026-05-07 10:44 50.84897 5.18833 6220 ft 258 kts 301°
2026-05-07 10:44 50.85609 5.16207 5893 ft 257 kts 293°
2026-05-07 10:44 50.86269 5.13616 5637 ft 253 kts 293°
2026-05-07 10:44 50.86837 5.10937 5168 ft 259 kts 289°
2026-05-07 10:45 50.87319 5.08369 4935 ft 254 kts 289°
2026-05-07 10:45 50.87824 5.05623 4577 ft 254 kts 289°
2026-05-07 10:45 50.88308 5.02961 4427 ft 245 kts 288°
2026-05-07 10:45 50.88759 5.00443 4295 ft 234 kts 288°
2026-05-07 10:46 50.89194 4.97993 4044 ft 228 kts 288°
2026-05-07 10:46 50.89624 4.95567 3538 ft 229 kts 288°
2026-05-07 10:46 50.90045 4.93172 3307 ft 218 kts 288°
2026-05-07 10:46 50.90436 4.90932 3073 ft 207 kts 288°
2026-05-07 10:47 50.90814 4.88751 2811 ft 198 kts 288°
2026-05-07 10:47 50.91166 4.86688 2419 ft 193 kts 288°
2026-05-07 10:47 50.91512 4.84673 2159 ft 183 kts 288°
2026-05-07 10:47 50.91841 4.82739 2013 ft 182 kts 288°
2026-05-07 10:48 50.92036 4.80770 1989 ft 183 kts 276°
2026-05-07 10:48 50.92093 4.78766 1987 ft 180 kts 277°
2026-05-07 10:48 50.92171 4.76842 2019 ft 170 kts 277°
2026-05-07 10:48 50.92253 4.74940 1982 ft 169 kts 277°
2026-05-07 10:49 50.92327 4.73118 1988 ft 166 kts 277°
2026-05-07 10:49 50.92472 4.71332 1979 ft 165 kts 291°
2026-05-07 10:49 50.93020 4.69783 2012 ft 159 kts 306°
2026-05-07 10:49 50.93335 4.68115 1960 ft 165 kts 265°
2026-05-07 10:50 50.92829 4.66460 2019 ft 172 kts 240°
2026-05-07 10:50 50.92443 4.64708 1985 ft 166 kts 274°
2026-05-07 10:50 50.92499 4.62879 1755 ft 171 kts 268°
2026-05-07 10:50 50.91998 4.61222 1580 ft 169 kts 235°
2026-05-07 10:51 50.91406 4.59646 1262 ft 165 kts 256°
2026-05-07 10:51 50.91135 4.57949 1145 ft 156 kts 259°
2026-05-07 10:51 50.90814 4.56287 852 ft 164 kts 253°
2026-05-07 10:51 50.90404 4.54558 503 ft 167 kts 250°
2026-05-07 10:52 50.90140 4.53444 362 ft 159 kts 251°
2026-05-07 10:53 50.89415 4.49581 167 ft 0 kts 307°
2026-05-07 10:54 50.89416 4.49577 167 ft 3 kts 307°
2026-05-07 10:54 50.89443 4.49522 166 ft 10 kts 307°
2026-05-07 10:54 50.89504 4.49388 163 ft 18 kts 304°
2026-05-07 10:55 50.89594 4.49188 154 ft 27 kts 309°
2026-05-07 10:55 50.89698 4.49164 148 ft 15 kts 15°
2026-05-07 10:55 50.89812 4.49212 142 ft 19 kts 15°
2026-05-07 10:55 50.89950 4.49267 134 ft 22 kts 13°
2026-05-07 10:56 50.90105 4.49330 128 ft 23 kts 15°
2026-05-07 10:56 50.90256 4.49393 124 ft 18 kts 14°
2026-05-07 10:56 50.90342 4.49358 121 ft 13 kts 329°
2026-05-07 10:56 50.90425 4.49294 120 ft 14 kts 335°
2026-05-07 10:57 50.90511 4.49232 121 ft 11 kts 335°
2026-05-07 10:57 50.90581 4.49182 120 ft 11 kts 335°
2026-05-07 10:57 50.90647 4.49129 120 ft 7 kts 309°
2026-05-07 10:57 50.90643 4.49052 120 ft 8 kts 243°
2026-05-07 10:58 50.90613 4.48966 118 ft 11 kts 245°
2026-05-07 10:58 50.90576 4.48836 116 ft 14 kts 245°
2026-05-07 10:58 50.90535 4.48698 118 ft 14 kts 245°
2026-05-07 10:58 50.90496 4.48565 116 ft 13 kts 245°
2026-05-07 10:59 50.90458 4.48436 118 ft 14 kts 245°
2026-05-07 10:59 50.90414 4.48287 118 ft 16 kts 245°
2026-05-07 10:59 50.90396 4.48226 119 ft 0 kts 245°
2026-05-07 11:00 50.90395 4.48219 117 ft 4 kts 246°
2026-05-07 11:00 50.90372 4.48153 119 ft 7 kts 220°
2026-05-07 11:00 50.90344 4.48167 120 ft 5 kts 151°
2026-05-07 11:01 50.90313 4.48190 120 ft 5 kts 155°
2026-05-07 11:01 50.90303 4.48197 117 ft 1 kts 155°
2026-05-07 11:01 50.90295 4.48203 119 ft 0 kts 155°